Погода в Стерлитамаке

Хотите узнать прогноз погоды в Стерлитамаке? Тогда Вам сюда: Погода в Стерлитамаке

Поиск расширенной информации на нашем сайте:

Полезная информация:

Новости сайта



02.01.2020
Опубликован Долгосрочный прогноз погоды по городам России и ближнего зарубежья на январь 2020 года.
Карты: Прогноз на январь и февраль 2020 года, Сравнение прогнозируемой аномалии приземной температуры воздуха на январь 2020 года по разным моделям.




Погода в Стерлитамаке - сегодня

Время (UTC), дата Ветер
(°,м/с) 
Видим.   Явления Облачность Т
(°С)
Тd
(°С)
f(%) Тe
(°С)
Pmin
(гПа)
dP
(гПа)
Po
(мм)
O2
(г/м3)
Тmin Tmax R s Состояние
почвы
18 28.11.20 180 (Ю) 10 км    10/10 600 м кучево-дожд. 
[Cb cap]
-4.7 -8.3 76 -4  1043  1.2  769  316           
21 28.11.20 180 (Ю) 4000 м  слаб. ливневой снег  10/10 600 м кучево-дожд. 
[Cb cap]
-5.3 -7.9 82 -5  1044.6  1.5  770  317           
00 29.11.20 тихо ()   4000 м  слаб. ливневой снег  10/10 600 м кучево-дожд. 
[Cb cap]
-6.1 -8.4 84 -6  1045.7  0.9  771  319           
03 29.11.20 160 (Ю) 4000 м  слаб. ливневой снег  10/10 600 м кучево-дожд. 
[Cb cap]
-5.4 -7.3 86 -5  1046.9  1.3  772  318  -6.7    равномерный
сухой снег
100% 
06 29.11.20 170 (Ю) 4000 м  слаб. ливневой снег  9/6 600 м кучево-дожд., средняя 
[Cb cap|Ac As]
-4.3 -6.7 83 -4  1047.9  772  317           
09 29.11.20 200 (Ю) 10 км  слаб. снег{ливн. осадки}  9/0 средняя 
[Ac As]
-2.8 -6 79 -2  1048.3  0.5  773  315           
12 29.11.20 170 (Ю) 4000 м  снег{ливн. осадки}  10/0 средняя 
[As op]
-3 -5.5 83 -3  1048.9  0.5  773  316           
15 29.11.20 200 (Ю) 4000 м  слаб. снег  10/0 средняя 
[As op]
-3.2 -5.1 87 -3  1049.5  0.6  774  316    -2.6     
18 29.11.20 180 (Ю) 2000 м  снег  10/0 средняя 
[As op]
-3.3 -5.1 87 -3  1050  0.5  774  316           
21 29.11.20 190 (Ю) 1000 м  сильн. снег  10/0 средняя 
[As op]
-3.4 -5.1 88 -3  1050.5  0.4  774  317           
00 30.11.20 180 (Ю) 2000 м  снег  10/0 средняя 
[As op]
-3.4 -5.1 88 -3  1050.7  0.3  775  317           
03 30.11.20 тихо ()   4000 м  слаб. снег  9/0 средняя 
[Ac As]
-6.5 -8.2 88 -7  1051.3  0.4  775  321  -6.7    13  равномерный
сухой снег
100% 
06 30.11.20 230 (ЮЗ) 4000 м  дымка{снег}  9/8 600 м средняя 
[Sc|Ac trans]
-3.3 -5 88 -3  1052  0.8  775  317           
09 30.11.20 тихо ()   4000 м  дымка  10/4 600 м средняя 
[Sc|Ac As]
-2.4 -5.6 79 -2  1052  0.1  776  316           
12 30.11.20 тихо ()   4000 м  дымка  10/10 600 м 
[Sc]
-3.1 -5.9 81 -3  1052  0.1  775  317           
15 30.11.20 050 (СВ) 10 км    9/9 600 м 
[Sc]
-2.8 -6.6 75 -2  1051.4  -0.5  775  316    -2.3  0.0     
18 30.11.20 120 (ЮВ) 10 км    10/10 600 м 
[Sc]
-3.7 -7.2 77 -5  1051.3  -0.2  775  317           
21 30.11.20 140 (ЮВ) 10 км    10/10 600 м 
[Sc]
-4.7 -7.7 79 -4  1051.1  -0.3  775  318           
00 01.12.20 190 (Ю) 10 км    3/3 600 м 
[Sc]
-6.4 -9 82 -6  1050.8  -0.3  774  321           
03 01.12.20 100 (В) 10 км    ясно 
-7.3 -9.6 84 -7  1050.6  -0.3  774  322  -7.3      11  равномерный
сухой снег
100% 
06 01.12.20 070 (В) 10 км    9/0 средняя 
[Ac As]
-7.7 -9.9 84 -9  1050.5  -0.2  774  322  -8         
09 01.12.20 040 (СВ) 4000 м  дымка  10/6 600 м средняя 
[Sc|Ac und]
-8.4 -10.7 83 -10  1049.6  -0.9  773  323           
12 01.12.20 080 (В) 4000 м  дымка  10/8 600 м средняя 
[Sc|Ac As]
-10.5 -12.5 85 -10  1048.9  -0.8  773  325           
15 01.12.20 070 (В) 4000 м  дымка  10/10 600 м 
[St]
-10.4 -12.4 85 -10  1048.7  -0.2  773  325    -7.3       
18 01.12.20 110 (В) 2000 м  дымка{ливн. осадки}  10/10 600 м 
[St]
-11.2 -13.3 84 -11  1048.5  -0.2  773  326           
Время (UTC), дата Ветер
(°,м/с) 
Видим.   Явления Облачность Т
(°С)
Тd
(°С)
f(%) Тe
(°С)
Pmin
(гПа)
dP
(гПа)
Po
(мм)
O2
(г/м3)
Тmin Tmax R s Состояние
почвы

Для получения пояснительной информации подведите курсор к названию столбца.

ПОГОДА в Стерлитамаке - архив

Всё, что Вы хотите узнать о погоде в Стерлитамаке - удобно и подробно!

Выберите нужную дату (начиная с 1 января 2019* года) и нажмите кнопку "Найти".
Будут отображены архивные сводки погоды по пункту Стерлитамак, начиная с указанной даты.


Отображать данные в формате CSV (для использования в таблицах Excel)


Внимание! Наш архив погоды предназначен исключительно для личного некоммерческого использования в познавательных целях. Если Вам необходимы официальные справки о состоянии погоды (для производственных, юридических, коммерческих и т.п. целей), обращайтесь в органы Росгидромета.

*Примечание: данная дата относится к архиву по метеостанциям СССР (Россия, СНГ, Балтия).
Архив по метеостанциям Зарубежной Европы и Азии (кроме Китая) хранится 10 дней, по другим регионам земного шара (Китай, Африка, Америка, Австралия, Океания) - 1 день.

Стерлитамак - район местоположения метеостанции


Название, широта, долгота, высота метеостанции:
Стерлитамак 53.6°ш. 56°д. 137 м над ур. моря [Российская Федерация]

Дополнительная информация

В oтличие oт бoльшинства пoгoдных сайтoв мы публикуем пoдрoбную метеoинфoрмацию в детальнoм прoфессиoнальнoм фoрмате.

Характеристики температуры и влажнoсти вoздуха измеряются на высoте 2 м в тени вдали oт зданий и деревьев.
Скoрoсть ветра измеряется на высoте 10 м (на урoвне рoста челoвека скoрoсть ветра ниже в 1.5-2 раза). Если метеoстанция нахoдится в гoрoде или в лесу, тo скoрoсть ветра занижена на 2-4 м/с пo сравнению с oткрытым местoм. Скoрoсть ветра над акватoриями крупных рек и oзёр, а также на вершинах хoлмoв на 2-5 м/с выше, чем в oбычных услoвиях.
Атмoсфернoе давление в разных тoчках местнoсти мoжет значительнo oтличаться oт давления на метеoстанции, в зависимoсти oт услoвий рельефа (при пoдъёме на 10 м давление пoнижается примернo на 1 мм рт.ст.).